User: anonymous   Login
Location: Caltech
(34.1382°N, 118.1253°W)
Time: 15:03:10
(UTC-07:00)
Language:

Cosmos 2237 Rocket - Orbit

View from above orbital plane
View from above orbital plane
View from above satellite
View from above satellite

Ground track
Ground track

The orbit data is extracted from the following two-line orbital elements,

1 22566U 93016B   17289.94351624 -.00000084 +00000-0 -18878-4 0  9991
2 22566 071.0066 171.3511 0012156 301.5306 058.4629 14.14947966268488
Epoch (UTC): 16 October 2017 22:38:39
Eccentricity: 0.0012156
inclination: 71.0066°
perigee height: 834 km
apogee height: 851 km
right ascension of ascending node: 171.3511°
argument of perigee: 301.5306°
revolutions per day: 14.14947966
mean anomaly at epoch: 58.4629°
orbit number at epoch: 26848

The dashed part of the orbit path shows where the satellite is in the earth's shadow,  

DLR